Powrót do katalogu

CZ-4 DEB

AktywnySSO
NORAD 35330·DEBRIS·🇨🇳 China

Wystrzelony Oct 14, 1999 z Taiyuan Satellite Launch Center

Loading…

Następne Przeloty (najbliższe 24 godziny)

TLE

ŚwieżeSource: Space-Track

Epoka: Sep 13, 2026, 09:02 UTC

1 35330U 99057SJ  26256.37695518  .00000414  00000-0  12971-3 0  9991
2 35330  98.6366 308.6803 0081638 112.6613 248.3236 14.43959551233369

Śledź CZ-4 DEB w czasie rzeczywistym z AllMySat

Download on the App Store